Weather History for Mae Hong Son, Thailand

Change the Weather History Date:

Tuesday, April 29, 2014

  Actual Average Record
Temperature  
Mean Temperature 90 °F -  
Max Temperature 103 °F 95 °F - ()
Min Temperature 78 °F 75 °F - ()
Cooling Degree Days 26    
Growing Degree Days 40 (Base 50)    
Moisture  
Dew Point 67 °F    
Average Humidity 45    
Maximum Humidity 69    
Minimum Humidity 24    
Precipitation  
Precipitation T in 0.23 in - ()
Sea Level Pressure  
Sea Level Pressure 29.78 in    
Wind  
Wind Speed 2 mph ()    
Max Wind Speed 14 mph    
Max Gust Speed 26 mph    
Visibility 4.8 miles    
Events Rain , Thunderstorm    
T = Trace of Precipitation, MM = Missing Value Source: Averaged Metar Reports

Daily Weather History Graph

Daily Weather History Graph

Search for Another Location

Airport:

Trip Planner

Search our weather history database for the weather conditions in past years. The results will help you decide how hot, cold, wet, or windy it might be!

Date:

Astronomy

Apr. 29, 2014 Rise Set
Actual Time 6:01 AM ICT 6:49 PM ICT
Civil Twilight 5:38 AM ICT 7:12 PM ICT
Nautical Twilight 5:11 AM ICT 7:39 PM ICT
Astronomical Twilight 4:44 AM ICT 8:07 PM ICT
Moon 5:54 AM ICT (4/29) 6:58 PM ICT (4/29)
Length of Visible Light 13h 34m
Length of Day
12h 48m
Waning Crescent, 0% of the Moon is Illuminated
Apr 29
Waning Crescent
Apr 29
New
May 7
First Quarter
May 15
Full
May 21
Last Quarter

Hourly Weather History & Observations

Time (ICT) Temp. Heat Index Dew Point Humidity Pressure Visibility Wind Dir Wind Speed Gust Speed Precip Events Conditions
1:00 AM 85 °F - 70 °F 52% 29.75 in 4 mi Calm Calm - -   Haze
4:00 AM 83 °F - 70 °F 57% 29.76 in 2 mi Calm Calm - -   Haze
7:00 AM 81 °F - 71 °F 65% 29.83 in 2 mi Calm Calm - -   Mist
7:00 AM 78.8 °F - 68.0 °F 69% 29.86 in 2.5 mi NW 3.5 mph - N/A   Mist
8:00 AM 84.2 °F 87.3 °F 68.0 °F 58% 29.86 in 2.5 mi Calm Calm - N/A   Haze
9:00 AM 86.0 °F 89.4 °F 68.0 °F 55% 29.89 in 3.7 mi WNW 3.5 mph - N/A   Unknown
10:00 AM 91 °F - 72 °F 44% 29.83 in 6 mi Calm Calm - -   Scattered Clouds
10:00 AM 91.4 °F 95.4 °F 68.0 °F 46% 29.86 in 6.2 mi Variable 3.5 mph - N/A   Partly Cloudy
11:00 AM 93.2 °F 96.2 °F 66.2 °F 41% 29.86 in 6.2 mi Variable 3.5 mph - N/A   Partly Cloudy
12:00 PM 95.0 °F 97.0 °F 64.4 °F 36% 29.83 in 6.2 mi Variable 4.6 mph - N/A   Scattered Clouds
1:00 PM 101 °F - 67 °F 24% 29.73 in 6 mi SSW 3.5 mph - -   Scattered Clouds
1:00 PM 98.6 °F 99.4 °F 60.8 °F 29% 29.77 in 6.2 mi SW 8.1 mph - N/A   Scattered Clouds
2:00 PM 100.4 °F 101.3 °F 60.8 °F 27% 29.74 in 6.2 mi WSW 6.9 mph - N/A   Scattered Clouds
3:00 PM 100.4 °F 100.2 °F 59.0 °F 25% 29.68 in 6.2 mi Variable 4.6 mph - N/A   Scattered Clouds
4:00 PM 95 °F - 70 °F 34% 29.66 in 6 mi NNW 13.8 mph - - Rain , Thunderstorm Thunderstorms and Rain
4:00 PM 91.4 °F 91.4 °F 60.8 °F 36% 29.71 in 5.0 mi WNW 13.8 mph 26.5 mph N/A   Scattered Clouds
6:00 PM 89.6 °F 93.4 °F 68.0 °F 49% 29.65 in 5.0 mi Calm Calm - N/A   Mostly Cloudy
7:00 PM 89 °F - 68 °F 41% 29.71 in 5 mi Calm Calm - -   Haze
10:00 PM 82 °F - 70 °F 59% 29.79 in 4 mi Calm Calm - -   Mist